STARLINK-34911, 65325

Orbit data source: Space-Track

STARLINK-34911, 65325 is a payload satellite owned by SpaceX/Seattle (US) in LEO that was launched on Wed, 27 Aug 2025 UTC via an FALCON 9 launch vehicle from the Air Force Eastern Test Range (AFETR). Payload-class satellites include a variety of spacecraft equipped with specific instruments for various scientific and technological missions. These include communications satellites like Starlink; space stations such as the ISS; scientific satellites like the Hubble; Earth observation satellites from companies like Planet Labs, Umbra, and HawkEye 360; GPS; miniature CubeSats for education and research; and military/defense satellites.

Loading next visibility...
Identifier
65325, 2025-189C
Orbit
LEO
Country
Flag of USUS
Related business
Manufacturer
SpaceX/Seattle
Mission
Operational Commercial Communications
Bus & Motor
STARLINK V2MO, Unknown motor
Mass
575 kg wet, ~530 kg dry
Launch date (UTC)
2025-08-27 (10 months ago)
Launch vehicle
FALCON 9
Launch site
Air Force Eastern Test Range (AFETR)
Object type
Payload
Rocket body
Debris
Shape & HBR
Box + 2 Pan, 17.7 m
Radar Cross Section
36.964 m², Large (>1 m²)

Expand to show TLE details & history
Last TLE update: 10 hours ago

TLE from 10 hours ago
0 STARLINK-34911
1 65325U 25189C   26171.41668980  .00022332  00000-0  68946-3 0  9993
2 65325  53.1591  89.8123 0001918  90.9723 195.3618 15.33495710  5845
Epoch: 2026-06-20T10:00Z
TLE epoch observation values (Epoch: 2026-06-20T10:00:01.998Z)
Latitude
-50.34595°
Longitude
-32.84277°
Altitude
484.045 km
Speed
7.622 km/s
True Right ascension
01h 43m 11s
True Declination
-50° 10' 12"
Sunlit
Object was in daylight at epoch
Visualization orbit readout
Latitude
Unknown
Longitude
Unknown
Altitude
Unknown
Speed
Unknown
Apparent Right ascension
Unknown
Apparent Declination
Unknown
Sunlit
N/A
Visualization observer readout
Local Sidereal Time
07:17:28
Azimuth
Unknown
Elevation
Unknown
Doppler factor
Unknown
Orbital elements
Apogee altitude
466.962 km
Perigee altitude
464.337 km
Semi-major axis
6,843.786 km
Eccentricity
0.00019
Inclination
53.1591°
RAAN
89.8123°
Arg. of periapsis
90.9723°
True anomaly
195.35598°
Mean anomaly
195.3618°
Eccentric anomaly
195.35889°
Mean motion
3.83353 °/min
Orbital period
93.91 mins
BSTAR
0.00068946
Loading maneuver chart data...
Computing Atmospheric mass density...
Loading historical data...
Loading historical data...
Loading historical data...
Loading historical data...
Loading historical data...
Loading historical data...
Loading historical data...

Documentation

Showing up to 5 results
|